Weather History for Las Cruces, NM

Change the Weather History Date:

Wednesday, April 30, 2014

  Actual Average Record
Temperature  
Mean Temperature 51 °F -  
Max Temperature 66 °F 78 °F 89 °F (2002)
Min Temperature 36 °F 48 °F 36 °F (2014)
Degree Days  
Heating Degree Days 14    
Growing Degree Days 1 (Base 50)    
Moisture  
Dew Point 15 °F    
Average Humidity 22    
Maximum Humidity 31    
Minimum Humidity 13    
Precipitation  
Precipitation 0.00 in - - ()
Sea Level Pressure  
Sea Level Pressure 30.13 in    
Wind  
Wind Speed 10 mph (ESE)    
Max Wind Speed 23 mph    
Max Gust Speed 34 mph    
Visibility 8 miles    
Events      
Averages and records for this station are not official NWS values.
T = Trace of Precipitation, MM = Missing Value Source: NWS Daily Summary

Daily Weather History Graph

Daily Weather History Graph

Search for Another Location

Airport:

Trip Planner

Search our weather history database for the weather conditions in past years. The results will help you decide how hot, cold, wet, or windy it might be!

Date:

Astronomy

Apr. 30, 2014 Rise Set
Actual Time 6:22 AM MDT 7:47 PM MDT
Civil Twilight 5:56 AM MDT 8:14 PM MDT
Nautical Twilight 5:25 AM MDT 8:45 PM MDT
Astronomical Twilight 4:52 AM MDT 9:17 PM MDT
Moon 7:27 AM MDT (4/30) 9:26 PM MDT (4/30)
Length of Visible Light 14h 17m
Length of Day
13h 25m
Waxing Crescent, 3% of the Moon is Illuminated
Apr 30
Waxing Crescent
May 6
First Quarter
May 14
Full
May 21
Last Quarter
May 28
New

Hourly Weather History & Observations

Time (MDT) Temp. Windchill Dew Point Humidity Pressure Visibility Wind Dir Wind Speed Gust Speed Precip Events Conditions
12:15 AM 45.1 °F 41.4 °F -3.6 °F 13% 30.10 in 10.0 mi North 6.9 mph - N/A   Clear
12:35 AM 45.3 °F 40.6 °F -2.9 °F 13% 30.11 in 10.0 mi North 9.2 mph - N/A   Clear
12:55 AM 51.1 °F - 2.1 °F 14% 30.12 in 10.0 mi NE 5.8 mph - N/A   Clear
1:15 AM 47.7 °F - 1.4 °F 15% 30.12 in 10.0 mi ESE 5.8 mph - N/A   Clear
1:35 AM 48.9 °F - 2.3 °F 15% 30.12 in 10.0 mi SE 4.6 mph - N/A   Clear
1:55 AM 48.4 °F - 2.8 °F 15% 30.12 in 10.0 mi Calm Calm - N/A   Clear
2:15 AM 41.2 °F - 0.3 °F 18% 30.12 in 10.0 mi Calm Calm - N/A   Clear
2:35 AM 40.3 °F - -0.2 °F 18% 30.12 in 10.0 mi Calm Calm - N/A   Clear
2:55 AM 39.7 °F - -0.2 °F 19% 30.12 in 10.0 mi Calm Calm - N/A   Clear
3:15 AM 37.4 °F - -2.4 °F 19% 30.12 in 10.0 mi Calm Calm - N/A   Clear
3:35 AM 37.6 °F 33.1 °F -0.4 °F 20% 30.12 in 10.0 mi NW 5.8 mph - N/A   Clear
3:55 AM 39.6 °F 36.3 °F 1.9 °F 21% 30.13 in 10.0 mi WNW 4.6 mph - N/A   Clear
4:15 AM 42.3 °F - 2.3 °F 19% 30.13 in 10.0 mi Calm Calm - N/A   Clear
4:35 AM 39.2 °F - 0.9 °F 20% 30.14 in 10.0 mi Calm Calm - N/A   Clear
4:55 AM 36.9 °F - -0.6 °F 21% 30.13 in 10.0 mi Calm Calm - N/A   Clear
5:15 AM 37.0 °F - 1.0 °F 22% 30.14 in 10.0 mi Calm Calm - N/A   Clear
5:35 AM 44.6 °F 40.7 °F 7.0 °F 21% 30.14 in 10.0 mi ENE 6.9 mph - N/A   Clear
5:55 AM 44.8 °F 41.0 °F 9.0 °F 23% 30.15 in 10.0 mi East 6.9 mph - N/A   Clear
6:15 AM 45.9 °F 40.0 °F 13.5 °F 27% 30.15 in 10.0 mi ESE 12.7 mph 17.3 mph N/A   Clear
6:35 AM 47.7 °F - 16.7 °F 29% 30.16 in 7.0 mi ESE 16.1 mph 23.0 mph N/A   Mostly Cloudy
6:55 AM 47.7 °F - 17.4 °F 30% 30.16 in 7.0 mi ESE 18.4 mph 21.9 mph N/A   Overcast
7:15 AM 48.2 °F - 18.3 °F 31% 30.17 in 5.0 mi ESE 12.7 mph - N/A   Haze
7:35 AM 49.3 °F - 18.3 °F 29% 30.18 in 5.0 mi ESE 11.5 mph - N/A   Haze
7:55 AM 50.4 °F - 19.4 °F 30% 30.18 in 4.0 mi ESE 11.5 mph - N/A   Haze
8:15 AM 51.1 °F - 19.9 °F 29% 30.18 in 4.0 mi ESE 16.1 mph 21.9 mph N/A   Haze
8:35 AM 52.2 °F - 20.3 °F 29% 30.19 in 4.0 mi ESE 16.1 mph 24.2 mph N/A   Overcast
8:55 AM 53.4 °F - 20.1 °F 27% 30.19 in 4.0 mi ESE 11.5 mph 23.0 mph N/A   Overcast
9:15 AM 54.5 °F - 20.3 °F 26% 30.19 in 4.0 mi ESE 18.4 mph 24.2 mph N/A   Haze
9:35 AM 54.9 °F - 20.7 °F 26% 30.19 in 4.0 mi ESE 17.3 mph 25.3 mph N/A   Haze
9:55 AM 55.6 °F - 20.5 °F 26% 30.20 in 4.0 mi ESE 20.7 mph 27.6 mph N/A   Haze
10:15 AM 56.8 °F - 20.8 °F 25% 30.19 in 4.0 mi ESE 19.6 mph 27.6 mph N/A   Haze
10:35 AM 56.8 °F - 20.5 °F 24% 30.20 in 4.0 mi ESE 23.0 mph 34.5 mph N/A   Haze
10:55 AM 57.9 °F - 20.7 °F 24% 30.19 in 5.0 mi East 21.9 mph 29.9 mph N/A   Haze
11:15 AM 59.4 °F - 21.2 °F 23% 30.19 in 5.0 mi East 21.9 mph 31.1 mph N/A   Haze
11:35 AM 59.9 °F - 20.5 °F 22% 30.19 in 5.0 mi ESE 23.0 mph 28.8 mph N/A   Haze
11:55 AM 60.3 °F - 19.8 °F 21% 30.18 in 5.0 mi ESE 19.6 mph 32.2 mph N/A   Haze
12:15 PM 61.9 °F - 19.8 °F 20% 30.17 in 5.0 mi ESE 17.3 mph 26.5 mph N/A   Haze
12:35 PM 62.8 °F - 19.2 °F 19% 30.16 in 7.0 mi SE 19.6 mph 25.3 mph N/A   Overcast
12:55 PM 62.4 °F - 19.9 °F 20% 30.15 in 7.0 mi East 17.3 mph 28.8 mph N/A   Overcast
1:15 PM 63.1 °F - 20.1 °F 19% 30.14 in 7.0 mi East 18.4 mph 26.5 mph N/A   Mostly Cloudy
1:55 PM 65.1 °F - 19.9 °F 18% 30.12 in 7.0 mi East 18.4 mph 23.0 mph N/A   Scattered Clouds
2:15 PM 65.1 °F - 19.4 °F 17% 30.12 in 7.0 mi East 17.3 mph 25.3 mph N/A   Clear
2:35 PM 65.5 °F - 18.9 °F 17% 30.12 in 10.0 mi East 18.4 mph 27.6 mph N/A   Clear
2:55 PM 65.7 °F - 19.2 °F 17% 30.11 in 7.0 mi ESE 13.8 mph 25.3 mph N/A   Clear
3:15 PM 65.7 °F - 18.9 °F 17% 30.11 in 10.0 mi ESE 17.3 mph 24.2 mph N/A   Clear
3:35 PM 65.8 °F - 18.9 °F 17% 30.09 in 7.0 mi East 15.0 mph 25.3 mph N/A   Clear
3:55 PM 66.2 °F - 18.5 °F 16% 30.09 in 10.0 mi ESE 10.4 mph 26.5 mph N/A   Clear
4:15 PM 66.6 °F - 18.5 °F 16% 30.08 in 10.0 mi ESE 13.8 mph 23.0 mph N/A   Clear
4:35 PM 66.2 °F - 19.0 °F 16% 30.08 in 10.0 mi East 19.6 mph 25.3 mph N/A   Clear
4:55 PM 65.5 °F - 19.2 °F 17% 30.08 in 10.0 mi ESE 16.1 mph 24.2 mph N/A   Clear
5:15 PM 65.5 °F - 19.4 °F 17% 30.08 in 10.0 mi East 16.1 mph 25.3 mph N/A   Clear
5:35 PM 64.8 °F - 19.6 °F 18% 30.08 in 10.0 mi East 19.6 mph 24.2 mph N/A   Clear
5:55 PM 64.4 °F - 19.9 °F 18% 30.08 in 10.0 mi ESE 13.8 mph 21.9 mph N/A   Clear
6:15 PM 63.9 °F - 20.3 °F 19% 30.08 in 10.0 mi ESE 13.8 mph 19.6 mph N/A   Clear
6:35 PM 63.3 °F - 20.3 °F 19% 30.08 in 10.0 mi ESE 16.1 mph - N/A   Clear
6:55 PM 62.1 °F - 20.5 °F 20% 30.08 in 10.0 mi ESE 16.1 mph 21.9 mph N/A   Clear
7:15 PM 61.2 °F - 21.0 °F 21% 30.09 in 10.0 mi ESE 15.0 mph 18.4 mph N/A   Clear
7:35 PM 60.1 °F - 21.0 °F 22% 30.09 in 10.0 mi ESE 15.0 mph 19.6 mph N/A   Clear
7:55 PM 59.4 °F - 21.0 °F 23% 30.09 in 10.0 mi ESE 12.7 mph - N/A   Clear
8:15 PM 58.6 °F - 21.2 °F 24% 30.09 in 10.0 mi ESE 13.8 mph - N/A   Clear
8:35 PM 58.1 °F - 21.7 °F 25% 30.09 in 10.0 mi ESE 15.0 mph - N/A   Clear
8:55 PM 57.7 °F - 21.7 °F 25% 30.10 in 10.0 mi ESE 13.8 mph 23.0 mph N/A   Clear
9:15 PM 57.2 °F - 21.9 °F 26% 30.11 in 10.0 mi ESE 17.3 mph 25.3 mph N/A   Clear
9:35 PM 56.7 °F - 21.9 °F 26% 30.12 in 10.0 mi ESE 16.1 mph 24.2 mph N/A   Clear
9:55 PM 56.5 °F - 21.6 °F 26% 30.12 in 10.0 mi ESE 16.1 mph 29.9 mph N/A   Clear
10:15 PM 56.3 °F - 21.2 °F 26% 30.13 in 10.0 mi ESE 15.0 mph 27.6 mph N/A   Clear
10:35 PM 55.8 °F - 21.2 °F 26% 30.13 in 10.0 mi ESE 21.9 mph 31.1 mph N/A   Clear
10:55 PM 55.4 °F - 21.2 °F 26% 30.13 in 10.0 mi ESE 15.0 mph 26.5 mph N/A   Clear
11:15 PM 55.4 °F - 21.2 °F 26% 30.14 in 10.0 mi ESE 16.1 mph 26.5 mph N/A   Clear
11:35 PM 55.4 °F - 21.2 °F 26% 30.14 in 10.0 mi ESE 18.4 mph 27.6 mph N/A   Clear
11:55 PM 55.6 °F - 21.2 °F 26% 30.14 in 10.0 mi ESE 18.4 mph 26.5 mph N/A   Clear